User: anonymous   Login
Location: �terpigny
(49.8910°N, 2.9249°E)
Time: 01:59:23
(UTC+00:00)
Language:

Gurwin Techsat 1B - Orbit

View from above orbital plane
View from above orbital plane
View from above satellite
View from above satellite

Ground track
Ground track

The orbit data is extracted from the following two-line orbital elements,

1 25397U 98043D   22176.44023306  .00000021  00000-0  28703-4 0  9997
2 25397  98.8183 126.9295 0002414  85.9478 274.1976 14.23758760244561
Epoch (UTC): 25 June 2022 10:33:56
Eccentricity: 0.0002414
inclination: 98.8183°
perigee height: 811 km
apogee height: 814 km
right ascension of ascending node: 126.9295°
argument of perigee: 85.9478°
revolutions per day: 14.23758760
mean anomaly at epoch: 274.1976°
orbit number at epoch: 24456

The dashed part of the orbit path shows where the satellite is in the earth's shadow,  

DLR